Location: Binningen
(47.7924°N, 8.7261°E)
Time: 07:18:12
(UTC+00:00)

Cosmos 1908 Rocket - Pass Details

Date: 17 May 2021
Orbit: 606 x 632 km, 82.5° (Epoch: 16 June)

Event Time Altitude Azimuth Distance (km) Brightness Sun altitude
Rises 21:41:22 0° 353° (N) 2,938 8.4 -19.0°
Reaches altitude 10° 21:43:39 10° 357° (N) 2,024 7.2 -19.2°
Maximum altitude 21:48:06 61° 78° (ENE) 719 3.7 -19.5°
Enters shadow 21:49:14 44° 134° (SE) 868 3.8 -19.6°
